Regional Weather Roundup
Issued by NWS

Home | Current Version | Previous Version | Graphics & Text | Print | Product List | Glossary On
Versions: 1 2 3 4 5 6 7 8 9 10 11 12 13 14 15 16 17 18 19 20 21 22 23 24 25 26 27 28 29 30 31 32 33 34 35 36 37 38 39 40 41 42 43 44 45 46 47 48 49 50
000
ASUS45 KTFX 012210
RWRMT
MONTANA REGIONAL WEATHER ROUNDUP
NATIONAL WEATHER SERVICE GREAT FALLS MT
400 PM MDT MON JUN 01 2015

NOTE: "FAIR" INDICATES FEW OR NO CLOUDS BELOW 12000 FEET WITH NO
SIGNIFICANT WEATHER AND/OR OBSTRUCTIONS TO VISIBILITY.

MTZ001>007-043-012300-
WEST OF THE DIVIDE

CITY           SKY/WX    TMP DP  RH WIND       PRES   REMARKS
KALISPELL      MOCLDY    83  43  24 CALM      29.77F
MISSOULA       LGT RAIN  58  53  84 SE10      29.91R
BUTTE          CLOUDY    53  47  79 NW8       29.96F
MULLAN PASS    CLOUDY    65  42  43 VRB3      29.96S
DEER LODGE       N/A     57  52  82 E7        29.96F
EUREKA           N/A     81  37  21 W7        29.78F
HAMILTON         N/A     66  48  52 N2        29.90F
LIBBY            N/A     79  45  29 N3        29.76F
PLAINS           N/A     80  50  35 SW2       29.79F
RONAN            N/A     75  54  48 SE5       29.87F
THOMPSON FALLS   N/A     69  55  60 W12       29.83R
$$

MTZ008-052>055-012300-
SOUTHWEST MONTANA

CITY           SKY/WX    TMP DP  RH WIND       PRES   REMARKS
BOZEMAN        PTSUNNY   68  48  48 W33G48    29.81S SQUALL
DILLON         TSTM      55  48  77 S14       30.02R
W YELLOWSTONE  MOSUNNY   73  37  27 SW20G28   29.94F
$$

MTZ009-010-012-014-046-048-049-054-012300-
EAST SLOPES AND CENTRAL MONTANA

CITY           SKY/WX    TMP DP  RH WIND       PRES   REMARKS
CUT BANK       MOSUNNY   76  44  32 NE9       29.87F
GREAT FALLS    CLOUDY    76  48  37 NE9       29.84F
MALMSTROM AFB  PTSUNNY   73  51  45 NE13      29.84F
HELENA         CLOUDY    67  51  56 W25G35    29.87R
CONRAD           N/A     74  47  38 NE5       29.91F
$$

MTZ011-013-016-021-045-047-050-051-012300-
NORTH CENTRAL MONTANA

CITY           SKY/WX    TMP DP  RH WIND       PRES   REMARKS
HAVRE          CLOUDY    76  49  38 E13       29.83F
LEWISTOWN      TSTM      65  55  70 E13       29.89S
N BAR RANCH    FAIR      70  48  46 NW8       29.96R
CHINOOK          N/A     79  46  31 NE6       29.82F
FORT BENTON      N/A     75  46  35 N5        29.83F
$$

MTZ017>020-022>027-061-062-012300-
NORTHEAST MONTANA

CITY           SKY/WX    TMP DP  RH WIND       PRES   REMARKS
GLASGOW        MOSUNNY   82  45  27 NW8       29.79F
JORDAN           N/A     85  47  26 N12       29.80F
SIDNEY         PTSUNNY   90  55  31 SE10      29.75F
WOLF POINT     PTSUNNY   85  54  34 NW9       29.77S
MALTA            N/A     80  51  36 N5        29.79F
PLENTYWOOD       N/A     82  52  34 NW13G20   29.79S
POPLAR           N/A     88  48  25 NW12      29.76F
SCOBEY           N/A     79  50  36 N13       29.82R
$$

MTZ028>42-056>058-012300-
SOUTHCENTRAL AND SOUTHEAST MONTANA

CITY           SKY/WX    TMP DP  RH WIND       PRES   REMARKS
BAKER          MOSUNNY   86  55  34 VRB7      29.83F
BILLINGS       PTSUNNY   83  45  26 NE12      29.81F
LIVINGSTON     MOSUNNY   79  49  34 E22G28    29.80F
MILES CITY     PTSUNNY   85  48  27 E5        29.78F
BIG TIMBER       N/A     75  54  46 E8        29.82F
EKALAKA          N/A     84  50  30 SE7       29.85F
FORSYTH          N/A     84  45  24 CALM      29.77F
LAUREL           N/A     80  49  33 NE8       29.82F
ROUNDUP          N/A     79  47  32 N8        29.77F
$$

REGIONAL REPORTS...DAKOTAS

CITY           SKY/WX    TMP DP  RH WIND       PRES   REMARKS
WILLISTON      PTSUNNY   88  51  28 S5        29.74S
MINOT          SUNNY     82  55  39 S16G29    29.78F
DICKINSON      PTSUNNY   83  58  42 S17       29.81F
BEACH          FAIR      84  48  28 W7        29.81F
CROSBY         FAIR      82  55  39 NE9       29.78S
WATFORD CITY   FAIR      86  54  32 S8        29.74F
BISMARCK       MOSUNNY   82  58  43 S13       29.84F
GRAND FORKS    MOSUNNY   73  47  39 S23G33    29.95F
FARGO          PTSUNNY   72  48  42 SE18G30   29.98F
BUFFALO SD       N/A     86  58  38 SE14      29.76F
RAPID CITY     MOSUNNY   85  57  38 SE20      29.84F
$$

REGIONAL REPORTS...WYOMING/IDAHO/WASHINGTON

CITY           SKY/WX    TMP DP  RH WIND       PRES   REMARKS
GILLETTE         N/A     84  54  35 SW9       29.85F
SHERIDAN       CLOUDY    80  57  45 NW5       29.82F
BUFFALO WY     CLOUDY    80  55  42 VRB5      29.88F
CODY           CLOUDY    72  54  53 CALM      29.87F
YELLOWSTONE LA   N/A     62  43  49 CALM      30.06F
IDAHO FALLS    PTSUNNY   77  53  43 SW16G26   29.85F
SALMON           N/A     61  48  63 W10G16    29.96R
BOISE          MOSUNNY   81  39  22 E15       29.81F
SPOKANE        CLOUDY    76  52  43 CALM      29.79F
$$

REGIONAL REPORTS...ALBERTA

CITY           SKY/WX    TMP DP  RH WIND       PRES   REMARKS
EDMONTON       MOSUNNY   63  45  51 NW12G20   29.97R
CALGARY        PTSUNNY   70  41  35 S7        29.90F
LETHBRIDGE     PTSUNNY   73  41  31 E6        29.88F
MEDICINE HAT   PTSUNNY   79  36  21 VRB9      29.86F
$$

REGIONAL REPORTS...SASKATCHEWAN

CITY           SKY/WX    TMP DP  RH WIND       PRES   REMARKS
SWIFT CURRENT  SUNNY     75  32  20 N12G22    29.88S
REGINA         MOSUNNY   75  48  38 NW10G21   29.84S
SASKATOON      MOSUNNY   72  46  40 NW12G21   29.89R
$$


USA.gov is the U.S. government's official web portal to all federal, state and local government web resources and services.